EW5254 Weather Reports


Display with metric or nautical units.
time (UTC)temp
F
wind
direction
speed
MPH
gust
MPH
rain 1hr
in
rain 24hr
in
rain mn
in
humidity
%
barometer
mb
20220518034525 80 134 4.0 7.0 0.00 0.00 0.00 18 998.5
20220518033026 80 93 4.0 6.0 0.00 0.00 0.00 12 998.1
20220518031536 81 304 1.0 5.0 0.00 0.00 0.00 12 997.8
20220518030024 81 296 2.0 5.0 0.00 0.00 0.00 12 997.5
20220518024524 82 298 4.0 9.0 0.00 0.00 0.00 11 997.5
20220518023023 82 309 5.0 9.0 0.00 0.00 0.00 11 997.3
20220518021521 83 306 4.0 8.0 0.00 0.00 0.00 11 997.0
20220518020033 84 297 5.0 10.0 0.00 0.00 0.00 11 996.8
20220518014521 86 287 6.0 12.0 0.00 0.00 0.00 10 996.6
20220518013020 87 298 9.0 15.0 0.00 0.00 0.00 10 996.3
20220518011519 88 289 7.0 16.0 0.00 0.00 0.00 9 996.2
20220518010023 89 258 8.0 16.0 0.00 0.00 0.00 9 996.0
20220518004518 90 253 9.0 18.0 0.00 0.00 0.00 9 996.0
20220518003016 91 272 15.0 24.0 0.00 0.00 0.00 9 995.9
20220518001516 91 261 6.0 16.0 0.00 0.00 0.00 9 995.8
20220518000015 91 252 9.0 19.0 0.00 0.00 0.00 9 995.8
20220517234516 90 254 12.0 23.0 0.00 0.00 0.00 9 995.7
20220517233014 91 233 11.0 22.0 0.00 0.00 0.00 9 995.7
20220517231513 93 218 12.0 21.0 0.00 0.00 0.00 10 995.7
20220517230013 93 268 14.0 25.0 0.00 0.00 0.00 10 995.8
20220517224512 93 250 9.0 27.0 0.00 0.00 0.00 10 995.8
20220517223010 94 227 14.0 20.0 0.00 0.00 0.00 11 996.1
20220517221507 93 274 17.0 24.0 0.00 0.00 0.00 11 996.2
20220517220005 91 171 6.0 16.0 0.00 0.00 0.00 14 996.4
20220517214504 90 203 9.0 17.0 0.00 0.00 0.00 14 996.6
20220517213001 90 232 7.0 19.0 0.00 0.00 0.00 13 997.0
20220517211506 92 245 8.0 25.0 0.00 0.00 0.00 12 997.1
20220517210106 91 230 10.0 22.0 0.00 0.00 0.00 12 997.5
20220517210007 91 213 9.0 22.0 0.00 0.00 0.00 12 997.3
20220517204602 92 207 10.0 19.0 0.00 0.00 0.00 12 997.4
20220517203002 91 225 10.0 21.0 0.00 0.00 0.00 12 997.6
20220517201600 93 246 12.0 20.0 0.00 0.00 0.00 11 997.9
20220517200132 91 244 3.0 19.0 0.00 0.00 0.00 13 998.1
20220517194601 91 263 11.0 23.0 0.00 0.00 0.00 12 998.4
20220517193058 91 215 8.0 12.0 0.00 0.00 0.00 12 998.5
20220517191553 91 217 12.0 16.0 0.00 0.00 0.00 12 998.5
20220517190051 90 260 7.0 18.0 0.00 0.00 0.00 12 998.6
20220517184557 90 216 8.0 16.0 0.00 0.00 0.00 11 999.0
20220517183048 89 271 3.0 15.0 0.00 0.00 0.00 12 999.1
20220517181554 89 272 8.0 14.0 0.00 0.00 0.00 13 999.3
20220517180048 88 198 9.0 16.0 0.00 0.00 0.00 13 999.4
20220517174544 87 203 5.0 15.0 0.00 0.00 0.00 11 999.6
20220517173050 88 230 9.0 14.0 0.00 0.00 0.00 12 999.7
20220517171540 86 312 7.0 15.0 0.00 0.00 0.00 12 999.8
20220517170038 85 300 4.0 12.0 0.00 0.00 0.00 15 1000.0